Location: Newark
(49.5647°N, 8.2922°E)
Time: 14:21:25
(UTC+00:00)

Transit 2A - Pass Details

Date: 19 February 2020
Orbit: 597 x 961 km, 66.7° (Epoch: 30 March)

Event Time Altitude Azimuth Distance (km) Brightness Sun altitude
Rises 15:40:08 0° 269° (W) 2,842 10.1 9.8°
Reaches altitude 10° 15:43:03 10° 290° (WNW) 1,960 8.8 9.4°
Maximum altitude 15:45:57 17° 332° (NNW) 1,584 7.7 9.0°
Drops below altitude 10° 15:48:57 10° 13° (NNE) 2,041 7.9 8.6°
Sets 15:52:04 0° 34° (NE) 3,015 8.5 8.1°
